IRIDIUM 61 [B] (25263 NORAD) Tracking and Keplerian Element Data

This shows tracking and keplerian element data for the satellite.

Feedback or suggestion? Click here.




ElementValue
Catalog25263
NameIRIDIUM 61 [B]
Epoch Orbit6345
Epoch Day198.90969166
Epoch Year2018
RAAN153.5189
Inclination86.4261
Eccentricity0.0002086
Argument of Perigee86.1765
Mean Anonmoly273.9672
Mean Motion14.3859992
Decay Rate1.14E-06
L11 25263U 98018B 18198.90969166 .00000114 00000-0 30735-4 0 9995
L22 25263 86.4261 153.5189 0002086 86.1765 273.9672 14.38599920 63452

Live tracking and technical data element details for IRIDIUM 61 [B] (NORAD 25263). IRIDIUM 61 [B] can be tracked NOW for your location showing map with azimuth and elevation plus other details from your city location.

Track the satellite on the map from your city or location and see movement details for azimuth, elevation, latitude, longitude, range, height, and movement on the map or in text.







IsCatalogInMostPopularTable: catalog: 25263, numindb: 33
Update: records affected: 1



GetName: 25263 IRIDIUM 61 [B]

Hit Count: updated at: Fri, 20 Jul 2018 06:56:33 GMT